Location: Équennes
(49.7375°N, 1.9622°E)
Time: 18:24:53
(UTC+00:00)

Cosmos 2278 - Pass Details

Date: 03 October 2023
Orbit: 838 x 853 km, 71.1° (Epoch: 08 December)

Event Time Altitude Azimuth Distance (km) Brightness Sun altitude
Rises 22:06:32 0° 332° (NNW) 3,427 7.7 -40.2°
Reaches altitude 10° 22:10:31 10° 359° (N) 2,491 6.7 -40.5°
Enters shadow 22:12:29 13° 19° (NNE) 2,282 6.3 -40.7°
